User: anonymous   Login
Location: Unspecified
(0.0000°N, 0.0000°E)
Time: 13:37:16
(UTC+02:00)
Language:

NOSS 2-2 (E) - Orbit

View from above orbital plane
View from above orbital plane
View from above satellite
View from above satellite

Ground track
Ground track

The orbit data is extracted from the following two-line orbital elements,

1 21809U 91076E   16202.95474654 0.00000000  00000-0  00000-0 0    01
2 21809  63.3580 233.7531 0718000  18.8876 341.1124 13.41273125    00
Epoch (UTC): 20 July 2016 22:54:50
Eccentricity: 0.0718000
inclination: 63.3580°
perigee height: 567 km
apogee height: 1642 km
right ascension of ascending node: 233.7531°
argument of perigee: 18.8876°
revolutions per day: 13.41273125
mean anomaly at epoch: 341.1124°
orbit number at epoch: 0

The dashed part of the orbit path shows where the satellite is in the earth's shadow,  

DLR